Tracking 30743 objects as of 21-Jun-2025
HD Live streaming from Space Station
objects crossing your sky now

NATO 3C

Track NATO 3C now!
NATO 3C is classified as:


NORAD ID: 11115
Int'l Code: 1978-106A
Perigee: 36,291.5 km
Apogee: 36,313.8 km
Inclination: 9.8 °
Period: 1,462.2 minutes
Semi major axis: 42673 km
RCS: 7.0899 m2 (large)
Launch date: November 19, 1978
Source: North Atlantic Treaty Organization (NATO)
Launch site: AIR FORCE EASTERN TEST RANGE (AFETR)
Your satellite tracking list
Your tracking list is empty




NASA's NSSDC Master Catalog

Two Line Element Set (TLE):
1 11115U 78106A   25171.77896056 -.00000166  00000-0  00000-0 0  9999
2 11115   9.7999 317.5017 0002610 323.0165 223.2229  0.98483388651653
Source of the keplerian elements: AFSPC